Fort Loudoun Observed Data For Previous 48 Hours

Caption
Day and Hour Reservoir Elevation (behind dam)* Tailwater Elevation (below dam)* Average Hourly Discharge*
11/11/2018 2 AM EST 811.48 742.00 30,350
11/11/2018 3 AM EST 811.45 741.98 30,311
11/11/2018 4 AM EST 811.43 742.00 30,375
11/11/2018 5 AM EST 811.43 741.97 30,494
11/11/2018 6 AM EST 811.41 741.93 30,410
11/11/2018 7 AM EST 811.40 741.91 30,406
11/11/2018 8 AM EST 811.39 741.91 30,394
11/11/2018 9 AM EST 811.42 741.91 30,361
11/11/2018 10 AM EST 811.40 741.90 30,361
11/11/2018 11 AM EST 811.38 741.91 30,377
11/11/2018 12 PM EST 811.38 741.91 30,375
11/11/2018 1 PM EST 811.35 741.91 30,313
11/11/2018 2 PM EST 811.35 741.92 30,432
11/11/2018 3 PM EST 811.29 741.92 30,452
11/11/2018 4 PM EST 811.29 741.91 30,450
11/11/2018 5 PM EST 811.30 741.88 30,382
11/11/2018 6 PM EST 811.30 741.85 30,456
11/11/2018 7 PM EST 811.33 741.83 30,321
11/11/2018 8 PM EST 811.32 741.85 30,313
11/11/2018 9 PM EST 811.33 741.85 30,308
11/11/2018 10 PM EST 811.33 741.82 30,278
11/11/2018 11 PM EST 811.32 741.78 30,230
11/12/2018 12 AM EST 811.31 741.80 30,355
11/12/2018 1 AM EST 811.24 741.81 30,325
11/12/2018 2 AM EST 811.24 741.79 30,419
11/12/2018 3 AM EST 811.19 741.73 30,414
11/12/2018 4 AM EST 811.19 741.72 30,357
11/12/2018 5 AM EST 811.18 741.72 30,276
11/12/2018 6 AM EST 811.15 741.72 30,309
11/12/2018 7 AM EST 811.14 741.69 30,362
11/12/2018 8 AM EST 811.18 741.67 30,335
11/12/2018 9 AM EST 811.16 741.66 30,444
11/12/2018 10 AM EST 811.20 741.70 30,435
11/12/2018 11 AM EST 811.26 741.70 30,524
11/12/2018 12 PM EST 811.25 741.68 30,448
11/12/2018 1 PM EST 811.34 741.66 30,514
11/12/2018 2 PM EST 811.39 741.67 30,435
11/12/2018 3 PM EST 811.39 741.70 30,461
11/12/2018 4 PM EST 811.36 741.71 30,550
11/12/2018 5 PM EST 811.33 741.69 30,458
11/12/2018 6 PM EST 811.36 741.63 30,520
11/12/2018 7 PM EST 811.40 741.60 30,140
11/12/2018 8 PM EST 811.43 741.60 30,133
11/12/2018 9 PM EST 811.46 741.66 30,454
11/12/2018 10 PM EST 811.51 741.67 30,402
11/12/2018 11 PM EST 811.54 741.68 30,326
11/13/2018 12 AM EST 811.56 741.71 30,376
11/13/2018 1 AM EST 811.58 741.71 30,432
11/13/2018 2 AM EST 811.70 741.71 30,415
11/13/2018 3 AM EST 811.73 741.71 30,534
11/13/2018 4 AM EST 811.70 741.68 30,520
11/13/2018 5 AM EST 811.66 741.65 30,355
11/13/2018 6 AM EST 811.66 741.68 30,388
11/13/2018 7 AM EST 811.70 741.69 30,450
11/13/2018 8 AM EST 811.69 741.69 30,398
11/13/2018 9 AM EST 811.70 741.68 32,563
11/13/2018 10 AM EST 811.71 741.65 30,386
11/13/2018 11 AM EST 811.71 741.68 30,347

Elevations are in feet above sea level. Discharges are in cubic feet per second and are reported at the end of the hour.